TIME,DELAY(SENSOR),PRES,T(CTD),SAL,OXYGEN,RAWTEMP,T(OPTODE),TCPHASE,FLUOR,BETA(BETA700),BETA(BETA412),BETA(BETA440),CDOM,C(CSC),ED(ED411.90),ED(ED443.80),ED(ED489.40),ED(ED554.70),LU(LU412.20),LU(LU443.80),LU(LU489.40),LU(LU555.00),COMP,TILTX,TILTX(TILTY),CHECK
1342452546,5804,497.5700073242187500,16.5436992645263670,36.2841987609863300,220.3168945312500000,217.6383056640625000,16.5453090667724600,32.9028091430664060,50,107,99,82,69,15404,2147479661,2147771254,2147562569,2147800594,2147311826,2147476013,2147717641,2148247058,1154,7,13,43441
1342452673,5803,486.2799987792969000,16.6914005279541000,36.3133010864257800,222.3807983398437500,212.9660034179687500,16.6873703002929700,32.7294197082519500,50,106,99,85,68,15402,2147478619,2147772425,2147559698,2147800960,2147312612,2147475584,2147717851,2148245312,1275,7,13,44312
1342452800,5804,475.3599853515625000,16.8304004669189450,36.3419990539550800,225.4302978515625000,208.4239959716797000,16.8254909515380860,32.5091590881347660,50,106,100,84,67,15403,2147479890,2147770998,2147560064,2147797001,2147314294,2147473700,2147714770,2148242541,1180,7,13,16138
1342452929,5801,464.7099914550781000,16.9190006256103500,36.3596992492675800,227.2203979492187500,205.3421020507812500,16.9192104339599600,32.3754882812500000,50,107,101,83,69,15402,2147479305,2147773339,2147558308,2147795666,2147315446,2147478025,2147710701,2148245321,1106,7,13,14082
1342453068,5802,453.8200073242187500,17.0618991851806640,36.3875999450683600,227.8300018310547000,200.4647979736328000,17.0675506591796880,32.2772903442382800,50,109,100,84,67,15401,2147480219,2147767460,2147558811,2147798619,2147312283,2147479533,2147716333,2148244443,1927,7,13,11303
1342453228,5802,440.4400024414062500,17.2378997802734380,36.4221000671386700,232.9860992431640600,194.8330993652343800,17.2388496398925780,31.9439201354980470,49,108,100,85,67,15396,2147481709,2147767414,2147558628,2147797677,2147314560,2147474368,2147708891,2148241892,3251,7,12,2708
1342453343,5804,429.1000061035156000,17.3271999359130860,36.4378013610839840,233.2494964599609400,192.0220947265625000,17.3243694305419920,31.8926601409912100,50,107,100,85,66,15400,2147484772,2147768896,2147558555,2147797814,2147314002,2147476361,2147711817,2148248914,244,7,12,50353
1342453458,5804,417.7600097656250000,17.3988990783691400,36.4497985839843750,232.8105010986328000,189.6461944580078000,17.3966503143310550,31.8818092346191400,50,108,99,84,66,15400,2147484224,2147771373,2147560009,2147798171,2147314624,2147479890,2147715145,2148243620,3538,7,13,47271
1342453563,5803,407.2999877929687500,17.4848003387451170,36.4651985168457000,232.1461029052734400,186.7760925292968800,17.4839801788330080,31.8751106262207030,50,108,100,83,67,15400,2147483794,2147772178,2147557997,2147797842,2147313627,2147473380,2147712292,2148245604,3275,8,12,13599
1342453678,5805,395.5100097656250000,17.5569000244140620,36.4804992675781250,234.2135925292968800,184.4333953857422000,17.5552692413330080,31.7423706054687500,50,108,100,83,67,15401,2147487643,2147768694,2147559817,2147798244,2147313956,2147475949,2147716187,2148242505,206,7,13,1311
1342453781,5803,384.5499877929687500,17.6229000091552730,36.4929008483886700,235.2928924560547000,182.3094024658203000,17.6199092864990230,31.6613006591796880,50,108,99,83,67,15401,2147484169,2147768548,2147559872,2147795456,2147313069,2147474230,2147709833,2148243785,423,7,12,17475
1342453898,5803,372.9899902343750000,17.6937999725341800,36.5055999755859400,236.1121063232422000,180.0238952636718800,17.6894702911376950,31.5910701751709000,50,107,100,84,66,15401,2147481810,2147769901,2147560438,2147795099,2147311341,2147472420,2147714852,2148241682,830,7,13,21587
1342454025,5804,361.7999877929687500,17.7338008880615230,36.5130996704101560,236.6921997070312500,178.6383972167968800,17.7316398620605470,31.5445003509521500,50,107,99,85,67,15399,2147484608,2147768393,2147562368,2147796909,2147305371,2147474240,2147711817,2148240219,1051,7,12,16230
1342454142,5803,351.4400024414062500,17.7773990631103500,36.5204010009765600,236.9902954101562500,177.1625976562500000,17.7765598297119140,31.5101108551025400,50,107,99,83,66,15402,2147485915,2147767378,2147566848,2147792237,2147313755,2147475236,2147712749,2148243620,1125,7,12,8477
1342454269,5805,340.1199951171875000,17.8173999786376950,36.5264015197753900,236.8500061035156200,175.7702941894531200,17.8189392089843750,31.4982299804687500,50,107,98,84,67,15401,2147485120,2147769782,2147568356,2147792566,2147312502,2147478116,2147715766,2148242962,1804,7,13,4483
1342454396,5804,328.9700012207031000,17.8796997070312500,36.5358009338378900,237.4243011474609400,173.8946990966797000,17.8760509490966800,31.4454002380371100,50,109,100,84,66,15396,2147487149,2147768896,2147573851,2147795840,2147319460,2147479213,2147718491,2148242294,1981,7,13,30083
1342454525,5804,317.9800109863281000,17.9199008941650400,36.5421981811523440,237.5055999755859400,172.5390014648437500,17.9173202514648440,31.4231204986572270,50,108,99,84,66,15395,2147485065,2147769901,2147575058,2147791606,2147315382,2147482230,2147721490,2148242916,2345,7,13,32676
1342454652,5803,307.7200012207031000,17.9568004608154300,36.5452995300293000,236.6499938964843800,171.3813934326172000,17.9525699615478500,31.4485893249511720,50,109,102,84,67,15393,2147490322,2147770075,2147583881,2147796269,2147308498,2147479478,2147723364,2148240813,2226,7,13,37238
1342454793,5803,296.8399963378906000,18.0251007080078120,36.5537986755371100,236.1143951416015600,169.0951995849609400,18.0221805572509770,31.4433097839355470,50,109,99,85,68,15392,2147485403,2147770249,2147591570,2147795776,2147307145,2147484800,2147728813,2148243620,2726,7,12,54082
1342454944,5804,285.8099975585937500,18.0725994110107420,36.5581016540527340,235.2826995849609400,167.5525970458984400,18.0691604614257800,31.4625797271728500,50,111,101,84,66,15388,2147487542,2147780836,2147601581,2147796169,2147311030,2147484681,2147736886,2148246208,3117,7,12,45402
1342455092,5806,274.7699890136719000,18.1406993865966800,36.5676994323730500,235.0686950683593800,165.2763977050781200,18.1384792327880860,31.4420700073242200,50,111,100,84,67,15389,2147489124,2147782125,2147622336,2147793764,2147314395,2147487817,2147750052,2148243163,451,8,13,40813
1342455226,5805,262.7099914550781000,18.2310009002685550,36.5749015808105500,233.4221954345703000,162.1600952148437500,18.2334098815917970,31.4797306060791000,50,112,99,84,66,15387,2147487817,2147789677,2147648841,2147794998,2147312128,2147496073,2147761700,2148242541,508,7,12,12199
1342455341,5803,252.2299957275390600,18.3332996368408200,36.5852012634277340,231.7109069824218800,158.7758026123047000,18.3365192413330080,31.5175590515136720,50,114,101,85,68,15382,2147489819,2147806080,2147682834,2147796388,2147311954,2147498057,2147785033,2148244397,638,7,13,21996
1342455458,5804,241.6199951171875000,18.4433002471923830,36.5885009765625000,229.1091003417968800,154.7111053466797000,18.4603805541992200,31.5904808044433600,50,111,100,85,67,15386,2147491739,2147815131,2147723904,2147793408,2147316918,2147508562,2147810633,2148248530,988,7,13,65486
1342455585,5805,230.3099975585937500,18.6364002227783200,36.5970001220703100,227.8529968261718800,148.3630981445312500,18.6539001464843750,31.5673809051513670,50,113,101,86,68,15383,2147493878,2147844644,2147797869,2147792000,2147314605,2147526957,2147850358,2148247122,1619,7,12,30335
1342455714,5803,218.9100036621093800,18.8729991912841800,36.6004981994628900,230.4291992187500000,141.1607055664062500,18.8735504150390620,31.3441009521484380,50,113,99,85,67,15384,2147499648,2147877174,2147877723,2147793453,2147322742,2147547913,2147893531,2148249417,1939,7,12,24481
1342455841,5801,207.8200073242187500,19.0858001708984380,36.5951004028320300,238.2192993164062500,134.5736999511718800,19.0745391845703120,30.8837699890136720,50,113,101,85,65,15383,2147506148,2147926637,2148001618,2147791725,2147322779,2147580562,2147968164,2148253376,3074,7,12,58975
1342455968,5804,197.0299987792968800,19.1326007843017580,36.5835990905761700,245.9647979736328000,132.3112945556640600,19.1436004638671880,30.4978504180908200,50,112,100,85,65,15384,2147518235,2147983451,2148156278,2147788992,2147320676,2147624640,2148060452,2148256841,383,7,12,23450
1342456043,5805,191.0299987792968800,19.1898002624511720,36.5834007263183600,249.2843017578125000,130.9633026123047000,19.1847496032714840,30.3316307067871100,51,112,99,86,65,15383,2147511277,2147903497,2147918976,2147789933,2147319451,2147577298,2147932013,2148250514,252,7,12,2352
1342456098,5804,187.0200042724609400,19.1984996795654300,36.5829010009765600,250.9040069580078000,130.6338043212890600,19.1948108673095700,30.2557201385498050,50,113,99,85,64,15384,2147529042,2148052818,2148327076,2147792274,2147324918,2147671469,2148147830,2148262893,511,8,12,13042
1342456153,5803,182.9299926757812500,19.1833992004394530,36.5713005065918000,252.0480957031250000,130.9815063476562500,19.1842002868652340,30.2101497650146500,51,113,100,85,64,15381,2147534381,2148086198,2148409316,2147793261,2147330578,2147692178,2148204379,2148263314,782,7,12,57202
1342456208,5802,178.8699951171875000,19.2381000518798830,36.5800018310546900,253.0346069335937500,129.2093048095703000,19.2383098602294920,30.1440696716308600,50,113,100,85,64,15379,2147548452,2148148580,2148566272,2147794002,2147333878,2147739318,2148296557,2148270034,1004,7,12,40651
1342456263,5804,174.8899993896484400,19.2663993835449220,36.5876998901367200,254.2407989501953000,128.4653015136718800,19.2610206604003900,30.0818996429443360,53,114,101,85,64,15385,2147558217,2148202450,2148688219,2147794614,2147336438,2147777929,2148369380,2148273874,766,7,12,46148
1342456318,5802,170.8999938964843800,19.2691993713378900,36.5839996337890600,255.1992950439453000,128.4640960693359400,19.2610607147216800,30.0402793884277340,53,113,100,85,63,15374,2147536786,2148034496,2148217234,2147792228,2147332580,2147675172,2148135597,2148260635,592,7,12,28043
1342456396,5804,165.6900024414062500,19.2485008239746100,36.5708999633789060,255.5883026123047000,128.8773040771484400,19.2484397888183600,30.0288906097412100,59,119,101,86,65,15370,2147581229,2148322404,2148981412,2147795081,2147358281,2147859236,2148553088,2148287780,752,8,12,2982
1342456451,5804,162.5899963378906200,19.2551994323730470,36.5718994140625000,256.1413879394531000,128.6528015136718800,19.2553005218505860,30.0023593902587900,60,119,101,86,64,15371,2147600192,2148372873,2149103506,2147798070,2147366848,2147894107,2148624612,2148289115,823,8,13,51813
1342456506,5804,159.6000061035156200,19.2738990783691400,36.5759010314941400,256.6228942871094000,128.1154937744140600,19.2717094421386720,29.9747104644775400,59,119,101,86,65,15370,2147605220,2148412553,2149184402,2147796214,2147364470,2147916873,2148674843,2148290697,862,8,12,2484
1342456585,5804,155.4100036621093800,19.2908992767334000,36.5784988403320300,257.0600891113281000,127.5719985961914000,19.2883090972900400,29.9490509033203120,63,119,102,87,63,15367,2147618880,2148433600,2149207442,2147796150,2147369005,2147931821,2148687762,2148293549,982,7,12,6019
1342456664,5802,151.3800048828125000,19.3087005615234380,36.5825004577636700,257.2921142578125000,127.0158004760742200,19.3052902221679700,29.9318504333496100,63,119,103,87,62,15368,2147674413,2148680374,2149788754,2147802057,2147399259,2148085750,2149016027,2148310646,832,7,12,34115
1342456745,5803,147.4100036621093800,19.3243007659912100,36.5850982666015600,257.4985961914062500,126.5280990600586000,19.3201808929443360,29.9168605804443360,65,122,103,87,64,15361,2147708425,2148795318,2150044333,2147804452,2147417627,2148168704,2149152502,2148320256,624,7,12,28543
1342456824,5804,143.6199951171875000,19.3344001770019530,36.5848999023437500,257.4414978027344000,126.1411972045898400,19.3320007324218750,29.9141807556152340,73,122,100,87,64,15356,2147755565,2148962422,2150393481,2147805403,2147445696,2148261321,2149341028,2148332150,369,7,12,58605
1342456903,5804,139.7400054931640600,19.3404006958007800,36.5835990905761700,257.5544128417969000,125.9167022705078100,19.3388595581054700,29.9064598083496100,80,126,101,88,64,15350,2147810697,2149125211,2150732050,2147806189,2147459126,2148348233,2149509001,2148342857,437,7,13,10855
1342456994,5801,135.2899932861328000,19.3505992889404300,36.5838012695312500,257.7254028320312500,125.6102981567382800,19.3482208251953120,29.8952903747558600,87,128,102,87,64,15341,2147892379,2149379419,2151261677,2147816502,2147500873,2148473261,2149751817,2148358866,239,7,12,40358
1342457075,5804,131.3600006103515600,19.3565006256103500,36.5839996337890600,257.6866149902344000,125.4130020141601600,19.3542404174804700,29.8945007324218750,92,126,102,88,64,15337,2147955181,2149512859,2151462409,2147824923,2147511515,2148454628,2149663945,2148360219,35,7,12,948
1342457154,5803,127.4899978637695300,19.3619995117187500,36.5840988159179700,257.9213867187500000,125.2444992065429700,19.3593902587890620,29.8822898864746100,96,132,103,89,64,15330,2147901339,2149244425,2150753828,2147817664,2147504539,2148361810,2149473280,2148346331,134,7,12,21646
1342457233,5805,123.6100006103515600,19.3780994415283200,36.5836982727050800,257.9180908203125000,124.7257995605468800,19.3752307891845700,29.8756294250488280,116,145,104,90,63,15299,2148130139,2149944438,2152161408,2147835437,2147587803,2148654134,2150013138,2148391588,156,7,13,1994
1342457312,5801,119.7399978637695300,19.3628005981445300,36.5721015930175800,257.1939086914062500,125.1669998168945300,19.3617591857910160,29.9121894836425780,120,141,105,90,62,15286,2148477421,2151048201,2154496365,2147878080,2147738121,2149183094,2151108662,2148464704,109,7,12,16983
1342457405,5806,115.3199996948242200,19.4088001251220700,36.5806007385253900,257.1897888183594000,123.7965011596679700,19.4036197662353500,29.8948192596435550,134,141,104,88,64,15279,2148697691,2151598500,2155447817,2147898349,2147813257,2149369737,2151446683,2148496411,72,7,12,49192
1342457484,5802,111.7900009155273400,19.4316997528076170,36.5816993713378900,258.9714050292969000,122.9609985351562500,19.4291496276855470,29.8083000183105470,143,143,104,88,63,15257,2148517138,2150863442,2153612653,2147874084,2147717046,2148907364,2150437805,2148434880,3516,7,12,16500
1342457587,5804,107.5199966430664000,19.4626998901367200,36.5834007263183600,260.6877136230469000,121.9946975708007800,19.4586696624755860,29.7233791351318360,161,142,105,90,64,15251,2149746249,2154272576,2159846701,2147989696,2148129325,2150187904,2152874084,2148634806,23,7,12,47558
1342457680,5806,103.9300003051757800,19.4780006408691400,36.5844993591308600,262.1835021972656000,121.5127029418945300,19.4734001159667970,29.6546897888183600,158,138,105,89,67,15243,2150463926,2155928347,2162178550,2148049929,2148353389,2150673225,2153615305,2148714203,142,7,13,61426
1342457783,5803,99.9800033569336000,19.5037002563476560,36.5842018127441400,264.4229125976562500,120.5723037719726600,19.5021305084228500,29.5497608184814450,152,140,104,90,66,15219,2151669348,2158623451,2165819200,2148143533,2148707620,2151518985,2154870756,2148842432,130,7,12,49096
1342457838,5802,97.9199981689453100,19.5478992462158200,36.5844001770019500,265.2254028320312500,119.2300033569336000,19.5431499481201170,29.4995002746582030,166,143,106,91,67,15181,2152483072,2160366820,2168077897,2148202569,2148946002,2152044342,2155614628,2148919405,3383,7,12,17389
1342457893,5805,95.8499984741211000,19.5583000183105470,36.5839996337890600,266.5444030761719000,118.8206024169921900,19.5556602478027340,29.4403305053710940,149,140,105,90,67,15191,2153487277,2162363757,2170561408,2148282989,2149240164,2152697709,2156545773,2149022400,2550,7,12,40016
1342457948,5799,93.6999969482421900,19.5760002136230470,36.5840988159179700,267.4237060546875000,118.1539001464843800,19.5760402679443360,29.3959293365478500,130,138,105,89,67,15213,2154614491,2164533970,2173102354,2148361618,2149613394,2153500708,2157612836,2149126710,2560,7,13,4837
1342458024,5805,90.0599975585937500,19.6382007598876950,36.5838012695312500,268.5870971679687500,116.2233963012695300,19.6350498199462900,29.3241996765136720,105,133,106,91,64,15229,2157037339,2168887140,2178233444,2148569462,2150445467,2155249673,2159890267,2149368402,2692,7,12,32399
1342458079,5804,86.9199981689453100,19.7045001983642580,36.5853004455566400,269.1467895507812500,114.0992965698242200,19.6999893188476560,29.2745704650878900,99,132,103,89,66,15223,2153913088,2160850093,2164959323,2148232082,2149533211,2152658788,2155206272,2148940251,2549,7,13,861
1342458134,5805,83.7900009155273400,19.7513999938964840,36.5861015319824200,269.9085998535156000,112.6080017089843800,19.7455902099609380,29.2248992919921880,95,134,106,90,65,15226,2162698514,2178393206,2189122432,2149073636,2152510747,2159377572,2164913344,2149911250,2706,8,13,3854
1342458189,5803,80.7500000000000000,19.8138999938964840,36.5867996215820300,271.1489868164062500,110.5597000122070300,19.8082408905029300,29.1492500305175780,92,134,106,89,63,15219,2165778432,2182901385,2193676470,2149378038,2153747108,2161620461,2167320384,2150175853,2732,7,13,27271
1342458244,5802,77.8700027465820300,19.8717002868652340,36.5886993408203100,274.0696105957031000,108.6733016967773400,19.8659400939941400,29.0094699859619140,89,138,106,90,62,15212,2169646390,2188418176,2199314102,2149757668,2155278692,2164188032,2170032777,2150482139,3006,7,13,2060
1342458299,5802,75.1600036621093800,19.9594001770019530,36.5878982543945300,274.7608032226562500,105.8179016113281200,19.9533100128173830,28.9462699890136720,85,138,109,92,62,15194,2174098139,2194572525,2205354651,2150138825,2157141668,2167320566,2173325266,2150833426,3125,7,13,24822
1342458356,5804,72.7399978637695300,20.0202007293701170,36.5881996154785160,275.8912963867187500,103.7209014892578100,20.0174903869628900,28.8755493164062500,81,135,107,89,62,15194,2171759213,2188026185,2194740946,2149779949,2156817280,2165808192,2170370779,2150534226,2843,7,12,17599
1342458411,5803,70.6200027465820300,20.1280994415283200,36.5864982604980500,276.7087097167969000,100.4156036376953100,20.1186695098876950,28.8022308349609380,79,140,106,91,63,15201,2179989001,2200613165,2209539958,2150726884,2159563172,2170101339,2174916196,2151102299,2893,7,13,11062
1342458466,5804,68.7900009155273400,20.1816997528076170,36.5885009765625000,277.7716064453125000,98.3554306030273400,20.1817607879638670,28.7350502014160160,78,138,108,92,63,15179,2190612068,2215687497,2225426011,2151661138,2164449371,2178642532,2184617846,2152113188,2798,7,13,61021
1342458521,5804,67.2600021362304700,20.2691001892089840,36.5821990966796900,278.2589111328125000,95.5898971557617200,20.2664699554443360,28.6815891265869140,77,140,107,92,62,15175,2190520758,2213161124,2220250614,2151469513,2165036434,2178626084,2183569801,2151986130,2336,7,13,39064
1342458600,5804,65.3199996948242200,20.4055004119873050,36.5828018188476560,281.5588989257812500,91.4251632690429700,20.3940792083740230,28.5031394958496100,72,139,108,91,63,15167,2173497069,2184440164,2185610230,2149698331,2158542628,2165803300,2167180370,2150291172,1976,7,13,50967
1342458678,5807,62.7999992370605500,20.6322002410888670,36.5937995910644500,283.4837951660156000,85.0803680419921900,20.5886192321777340,28.3514804840087900,70,142,109,92,59,15162,2195380534,2214360329,2217226797,2151775387,2168780379,2181887762,2184217782,2152139382,2160,8,13,45053
1342458733,5802,60.2700004577636700,20.8304004669189450,36.5993003845214840,283.9516906738281000,79.4930267333984400,20.7600498199462900,28.2646808624267580,69,141,107,93,62,15163,2221459529,2248527926,2253247853,2154755035,2181845814,2201364955,2204154678,2154458651,2422,8,13,40622
1342458788,5803,57.8100013732910160,21.0013008117675780,36.5956001281738300,283.7882080078125000,73.5507736206054700,20.9424991607666000,28.1973209381103500,66,142,108,91,60,15153,2236582948,2267001901,2272825499,2157122880,2189612800,2211530989,2213623890,2155742070,2649,8,13,23479
1342458843,5805,55.8499984741210940,21.1851005554199220,36.5974998474121100,283.5274963378906000,66.9591217041015600,21.1450595855712900,28.1257896423339840,64,141,109,94,57,15163,2240330934,2269694848,2274341412,2157791744,2192674724,2214614198,2215490678,2156002413,3053,7,13,33692
1342458997,5804,53.1899986267089840,21.2985000610351560,36.5998001098632800,284.0120849609375000,62.4522399902343750,21.2836608886718750,28.0521507263183600,63,142,109,94,61,15151,2179792283,2185330944,2181794413,2150260361,2164576182,2170273124,2167919350,2150512987,157,7,13,35777
1342459054,5802,51.9399986267089840,21.3351001739501950,36.5970993041992200,283.6818847656250000,60.6985092163085940,21.3376102447509770,28.0430603027343750,63,144,108,93,59,15148,2263069266,2292781924,2295733522,2161463414,2209396699,2233688356,2230903753,2158330194,474,7,13,28982
1342459087,5804,50.5299987792968750,21.4123001098632800,36.5974006652832000,283.4291076660156000,58.0266990661621100,21.4198303222656250,28.0197391510009770,62,143,111,93,59,15149,2269094637,2297927515,2300313243,2162642285,2215086683,2239936009,2235851968,2159080640,634,7,13,27223
1342459132,5803,48.3300018310546900,21.4979991912841800,36.5993003845214840,283.2723999023437500,55.3444595336914060,21.5024108886718750,27.9925899505615230,60,145,108,93,62,15147,2280988288,2309204242,2310972544,2165410139,2223873865,2249485037,2243434788,2160369033,693,8,12,17933
1342459165,5803,46.7700004577636700,21.6032009124755860,36.5966987609863300,282.9621887207031000,52.5974082946777340,21.5870094299316400,27.9704895019531250,59,145,111,92,60,15146,2289176338,2317159862,2318837933,2167283803,2229711158,2255360384,2247955949,2161197476,883,8,12,4780
1342459210,5803,44.7900009155273440,21.6903991699218750,36.5922012329101560,282.5784912109375000,49.3938293457031250,21.6857204437255860,27.9456691741943360,60,149,109,92,56,15150,2298528731,2324652425,2325417005,2169794450,2238039460,2264015131,2254691364,2162410130,1227,7,13,10247
1342459267,5801,42.6800003051757800,21.9848995208740230,36.5713005065918000,281.2171936035156000,40.5483512878418000,21.9585094451904300,27.8884696960449220,59,150,108,92,60,15144,2308586322,2333070116,2332605275,2172836105,2248998089,2275321353,2263856630,2164126555,1311,7,12,49034
1342459360,5805,40.8400001525878900,22.1476993560791000,36.5569000244140600,280.7083129882812500,34.2070884704589840,22.1542892456054700,27.8301601409912100,58,142,111,94,59,15149,2320068022,2344856932,2345163026,2176252324,2258474980,2284322514,2270095972,2165444059,814,7,13,48991
1342459441,5804,38.5999984741210940,22.3535003662109380,36.5386009216308600,279.7084960937500000,27.4120502471923830,22.3643207550048830,27.7849998474121100,59,144,108,95,57,15140,2333101092,2356314944,2355381814,2180146788,2275403885,2301824064,2283346596,2167609554,562,7,12,33390
1342459522,5805,36.8400001525878900,22.5823993682861330,36.5214996337890600,278.0321960449219000,19.6688404083251950,22.6039295196533200,27.7540702819824220,58,143,109,93,61,15145,2347572443,2370608384,2370089380,2185774692,2286494912,2313020937,2292164598,2169294546,24,7,13,14813
1342459687,5805,34.8600006103515600,22.8668994903564450,36.4785003662109400,275.6069030761719000,9.9527835845947270,22.9050407409667970,27.7282791137695300,58,148,109,92,57,15127,2363101120,2385208256,2385212361,2192495469,2299514569,2324646619,2300730514,2171642322,3459,6,12,45205
1342460378,5804,32.7999992370605500,24.3094005584716800,36.3474998474121100,261.3216857910156000,-33.1405105590820300,24.2471904754638670,27.7645492553710940,58,138,108,92,56,15148,2369913261,2388925549,2388129161,2196212790,2325286637,2349589010,2319210212,2174869092,2073,7,13,29244
1342460483,5802,30.8799991607666000,24.3267002105712900,36.3502998352050800,260.0307006835937500,-35.9592514038085940,24.3353805541992200,27.7823390960693360,59,141,107,92,55,15137,2384441691,2405368329,2406445458,2203428937,2329703680,2354178788,2324462966,2176130962,3490,7,12,370